TimeEDT,TemperatureF,Dew PointF,Humidity,Sea Level PressureIn,VisibilityMPH,Wind Direction,Wind SpeedMPH,Gust SpeedMPH,PrecipitationIn,Events,Conditions,WindDirDegrees,DateUTC
12:53 AM,66.0,55.9,70,29.93,10.0,SSW,11.5,-,N/A,,Overcast,200,2012-10-23 04:53:00
2:53 AM,62.1,55.0,78,29.94,10.0,SSW,9.2,-,N/A,,Partly Cloudy,200,2012-10-23 06:53:00
3:53 AM,62.1,55.0,78,29.91,10.0,SSW,8.1,-,N/A,,Clear,200,2012-10-23 07:53:00
4:43 AM,62.6,55.4,77,29.93,10.0,SSW,11.5,-,N/A,,Mostly Cloudy,210,2012-10-23 08:43:00
4:53 AM,62.1,55.0,78,29.93,10.0,SSW,8.1,-,N/A,,Overcast,210,2012-10-23 08:53:00
5:53 AM,61.0,55.0,81,29.93,10.0,SSW,11.5,-,N/A,,Overcast,200,2012-10-23 09:53:00
6:53 AM,60.1,54.0,80,29.92,10.0,South,4.6,-,N/A,,Mostly Cloudy,190,2012-10-23 10:53:00
7:04 AM,60.8,53.6,77,29.93,10.0,South,3.5,-,N/A,,Scattered Clouds,190,2012-10-23 11:04:00
7:12 AM,59.0,53.6,82,29.93,10.0,Calm,Calm,-,N/A,,Mostly Cloudy,0,2012-10-23 11:12:00
7:53 AM,60.1,54.0,80,29.92,10.0,South,3.5,-,N/A,,Overcast,180,2012-10-23 11:53:00
8:53 AM,63.0,54.0,72,29.96,10.0,SSW,12.7,-,N/A,,Overcast,200,2012-10-23 12:53:00
9:53 AM,63.0,54.0,72,29.99,10.0,SW,15.0,23.0,N/A,,Overcast,220,2012-10-23 13:53:00
11:27 AM,62.6,57.2,82,29.97,10.0,SSW,4.6,-,N/A,,Partly Cloudy,200,2012-10-23 15:27:00
11:53 AM,63.0,57.9,84,29.95,10.0,Calm,Calm,-,N/A,,Partly Cloudy,0,2012-10-23 15:53:00
1:33 PM,64.4,60.8,88,29.98,10.0,SW,12.7,-,N/A,,Mostly Cloudy,230,2012-10-23 17:33:00
1:44 PM,66.2,60.8,83,29.97,10.0,WSW,15.0,18.4,0.00,,Mostly Cloudy,240,2012-10-23 17:44:00
1:53 PM,64.9,60.1,84,29.96,10.0,SW,15.0,-,0.00,,Overcast,230,2012-10-23 17:53:00
2:53 PM,64.9,59.0,81,29.94,10.0,South,13.8,23.0,N/A,,Mostly Cloudy,190,2012-10-23 18:53:00
3:21 PM,66.2,60.8,83,29.94,10.0,SSW,12.7,-,N/A,,Scattered Clouds,200,2012-10-23 19:21:00
3:42 PM,66.2,59.0,78,29.94,10.0,SSW,10.4,-,N/A,,Mostly Cloudy,210,2012-10-23 19:42:00
3:53 PM,66.0,59.0,78,29.94,10.0,SSW,9.2,18.4,N/A,,Mostly Cloudy,200,2012-10-23 19:53:00
4:07 PM,66.2,60.8,83,29.93,10.0,SSW,8.1,-,N/A,,Mostly Cloudy,200,2012-10-23 20:07:00
4:22 PM,66.2,60.8,83,29.93,10.0,SSW,9.2,-,N/A,,Scattered Clouds,210,2012-10-23 20:22:00
4:53 PM,66.0,59.0,78,29.93,10.0,SW,6.9,-,N/A,,Mostly Cloudy,230,2012-10-23 20:53:00
5:53 PM,66.0,59.0,78,29.95,10.0,SSW,6.9,-,N/A,,Overcast,200,2012-10-23 21:53:00
6:37 PM,64.4,57.2,77,29.96,10.0,South,8.1,-,N/A,,Overcast,190,2012-10-23 22:37:00
6:53 PM,63.0,57.9,84,29.96,10.0,South,5.8,-,0.00,Rain,Light Rain,180,2012-10-23 22:53:00
7:20 PM,62.6,57.2,82,29.97,10.0,South,5.8,-,0.00,,Overcast,180,2012-10-23 23:20:00
7:39 PM,62.6,57.2,82,29.98,10.0,South,6.9,-,0.00,,Overcast,190,2012-10-23 23:39:00
7:53 PM,63.0,57.9,84,29.98,10.0,SSW,6.9,-,0.00,,Overcast,200,2012-10-23 23:53:00
8:16 PM,62.6,57.2,82,29.99,10.0,SSW,4.6,-,N/A,,Overcast,200,2012-10-24 00:16:00
8:39 PM,62.6,57.2,82,29.99,10.0,SSE,3.5,-,N/A,,Overcast,160,2012-10-24 00:39:00
8:53 PM,61.0,57.0,87,29.98,10.0,SE,4.6,-,N/A,,Scattered Clouds,130,2012-10-24 00:53:00
9:53 PM,60.1,57.0,90,29.98,8.0,East,4.6,-,N/A,,Mostly Cloudy,100,2012-10-24 01:53:00
10:53 PM,61.0,57.9,90,29.99,9.0,SE,4.6,-,N/A,,Mostly Cloudy,140,2012-10-24 02:53:00
11:53 PM,62.1,57.9,86,29.98,9.0,SE,6.9,-,N/A,,Overcast,130,2012-10-24 03:53:00